TRA264K GMMX-EBBR

Flight info

Callsign TRA264K
Flight time N/A
Altitude 36000
Route OBOGA3D OBOGA UG850 VALBA UZ801 TOLSI UG5 VAGNO/N0442F370 UG5 KORIS DCT SVL/N0442F380 DCT HIJ DCT RUSEM DCT SOTUK DCT USOKO DCT TLD DCT SIE DCT EDIGO DCT DGO L176 LUSEM DCT LULUT DCT ADABI/N0435F360 DCT BOKNO DCT DEVRO DCT VANAD DCT PIWIZ/N0426F340 DCT VADOM DCT BAMES DCT PODEM DCT BAZOS DCT BELDI DCT VEKIN Z173 ARVOL ARVOL9A
Aircraft B738/M-SDE2E3FGHIJ1RWXYZ/LB1

Departure

Time 2026-04-30 13:23
Airport Marrakesh Menara Airport (GMMX)

Arrival

Time N/A
Airport Brussels Airport (EBBR)
Time Latitude Longitude Altitude Speed Heading
2026-04-30 13:00 31.60306 -8.02546 1548 ft 0 kts 186°
2026-04-30 13:15 31.60309 -8.02546 1542 ft 3 kts 186°
2026-04-30 13:15 31.60335 -8.02542 1548 ft 4 kts 187°
2026-04-30 13:16 31.60362 -8.02539 1540 ft 4 kts 186°
2026-04-30 13:16 31.60389 -8.02536 1548 ft 4 kts 183°
2026-04-30 13:16 31.60416 -8.02535 1541 ft 4 kts 178°
2026-04-30 13:17 31.60427 -8.02536 1548 ft 0 kts 178°
2026-04-30 13:18 31.60426 -8.02536 1540 ft 0 kts 178°
2026-04-30 13:19 31.60414 -8.02526 1538 ft 5 kts 128°
2026-04-30 13:19 31.60413 -8.02458 1541 ft 11 kts 92°
2026-04-30 13:19 31.60406 -8.02367 1542 ft 11 kts 95°
2026-04-30 13:19 31.60399 -8.02279 1544 ft 11 kts 95°
2026-04-30 13:20 31.60392 -8.02193 1548 ft 10 kts 95°
2026-04-30 13:20 31.60384 -8.02110 1548 ft 10 kts 96°
2026-04-30 13:20 31.60411 -8.02041 1546 ft 10 kts 25°
2026-04-30 13:20 31.60477 -8.02031 1549 ft 10 kts
2026-04-30 13:21 31.60538 -8.02039 1546 ft 8 kts 320°
2026-04-30 13:21 31.60552 -8.02080 1548 ft 0 kts 275°
2026-04-30 13:22 31.60554 -8.02100 1550 ft 13 kts 275°
2026-04-30 13:22 31.60667 -8.03387 1539 ft 141 kts 276°
2026-04-30 13:23 31.60786 -8.04702 1722 ft 173 kts 276°
2026-04-30 13:23 31.61041 -8.07588 2847 ft 195 kts 281°
2026-04-30 13:24 31.63050 -8.09971 3268 ft 237 kts 348°
2026-04-30 13:24 31.66156 -8.08719 4077 ft 265 kts 48°
2026-04-30 13:25 31.69228 -8.06343 5484 ft 270 kts 22°
2026-04-30 13:25 31.72707 -8.04545 6951 ft 276 kts 24°
2026-04-30 13:26 31.78035 -8.01580 9002 ft 288 kts 26°
2026-04-30 13:26 31.81667 -7.99479 10385 ft 293 kts 27°
2026-04-30 13:27 31.85334 -7.97328 11758 ft 298 kts 28°
2026-04-30 13:28 31.91100 -7.93918 13457 ft 319 kts 27°
2026-04-30 13:28 31.95092 -7.91549 14852 ft 324 kts 26°
2026-04-30 13:28 31.97112 -7.90349 15523 ft 327 kts 26°
2026-04-30 13:29 32.01197 -7.87920 16805 ft 335 kts 26°
2026-04-30 13:29 32.05578 -7.85313 17341 ft 365 kts 26°
2026-04-30 13:30 32.12453 -7.81211 19173 ft 373 kts 26°
2026-04-30 13:31 32.17151 -7.78406 20213 ft 383 kts 26°
2026-04-30 13:31 32.24381 -7.74082 21771 ft 394 kts 26°
2026-04-30 13:32 32.29312 -7.71129 22718 ft 402 kts 26°
2026-04-30 13:32 32.34344 -7.68108 23588 ft 409 kts 26°
2026-04-30 13:33 32.39462 -7.65034 24479 ft 416 kts 26°
2026-04-30 13:33 32.44654 -7.61913 25323 ft 422 kts 26°
2026-04-30 13:34 32.47284 -7.60329 25701 ft 426 kts 26°
2026-04-30 13:34 32.55282 -7.55507 26848 ft 435 kts 26°
2026-04-30 13:35 32.57983 -7.53877 27236 ft 437 kts 26°
2026-04-30 13:35 32.63574 -7.50975 27897 ft 442 kts 13°
2026-04-30 13:36 32.69656 -7.50090 28575 ft 442 kts 358°
2026-04-30 13:36 32.72736 -7.50158 28880 ft 444 kts 356°
2026-04-30 13:36 32.78890 -7.49021 29482 ft 454 kts 17°
2026-04-30 13:37 32.81887 -7.47813 29805 ft 456 kts 18°
2026-04-30 13:37 32.87926 -7.45333 30319 ft 462 kts 18°
2026-04-30 13:38 32.94042 -7.42856 30869 ft 466 kts 17°
2026-04-30 13:38 32.97122 -7.41622 31108 ft 469 kts 17°
2026-04-30 13:38 33.03342 -7.39148 31559 ft 474 kts 17°
2026-04-30 13:39 33.09624 -7.36653 32046 ft 478 kts 17°
2026-04-30 13:39 33.15954 -7.34132 32482 ft 482 kts 17°
2026-04-30 13:40 33.19140 -7.32862 32676 ft 484 kts 17°
2026-04-30 13:40 33.22335 -7.31585 32878 ft 485 kts 17°
2026-04-30 13:40 33.25544 -7.30304 33065 ft 487 kts 17°
2026-04-30 13:40 33.28769 -7.29016 33239 ft 490 kts 17°
2026-04-30 13:41 33.32005 -7.27722 33436 ft 491 kts 17°
2026-04-30 13:41 33.35250 -7.26422 33627 ft 493 kts 17°
2026-04-30 13:41 33.38505 -7.25117 33834 ft 494 kts 17°
2026-04-30 13:41 33.41760 -7.23812 34085 ft 493 kts 17°
2026-04-30 13:42 33.44966 -7.22524 34349 ft 492 kts 17°
2026-04-30 13:42 33.48212 -7.21220 34579 ft 493 kts 17°
2026-04-30 13:42 33.54708 -7.18607 35069 ft 491 kts 17°
2026-04-30 13:43 33.57944 -7.17303 35298 ft 491 kts 17°
2026-04-30 13:43 33.61181 -7.16000 35478 ft 491 kts 17°
2026-04-30 13:43 33.64425 -7.14692 35683 ft 491 kts 17°
2026-04-30 13:43 33.67656 -7.13388 35951 ft 489 kts 17°
2026-04-30 13:44 33.70876 -7.12087 36164 ft 488 kts 17°
2026-04-30 13:44 33.74100 -7.10784 36302 ft 490 kts 17°
2026-04-30 13:44 33.77334 -7.09476 36439 ft 491 kts 17°
2026-04-30 13:44 33.80567 -7.08168 36625 ft 490 kts 17°
2026-04-30 13:45 33.86968 -7.05572 37356 ft 479 kts 17°
2026-04-30 13:45 33.90111 -7.04295 37649 ft 476 kts 17°
2026-04-30 13:46 33.96423 -7.01731 37761 ft 481 kts 17°
2026-04-30 13:46 33.99596 -7.00440 37875 ft 482 kts 17°
2026-04-30 13:46 34.02768 -6.99147 38062 ft 481 kts 17°
2026-04-30 13:47 34.09136 -6.96553 38079 ft 485 kts 17°
2026-04-30 13:47 34.15563 -6.93931 38079 ft 489 kts 17°
2026-04-30 13:48 34.22023 -6.91290 38079 ft 491 kts 17°
2026-04-30 13:48 34.28508 -6.88633 38074 ft 493 kts 17°
2026-04-30 13:49 34.35005 -6.85968 38072 ft 493 kts 17°
2026-04-30 13:49 34.41488 -6.83303 38071 ft 492 kts 17°
2026-04-30 13:50 34.47955 -6.80640 38071 ft 490 kts 17°
2026-04-30 13:50 34.57606 -6.76661 38069 ft 487 kts 17°
2026-04-30 13:51 34.64005 -6.74016 38072 ft 485 kts 17°
2026-04-30 13:51 34.70382 -6.71376 38071 ft 483 kts 17°
2026-04-30 13:52 34.76740 -6.68739 38075 ft 482 kts 17°
2026-04-30 13:52 34.83092 -6.66101 38075 ft 482 kts 17°
2026-04-30 13:53 34.89437 -6.63462 38074 ft 482 kts 17°
2026-04-30 13:53 34.95743 -6.60834 38077 ft 482 kts 17°
2026-04-30 13:54 35.02093 -6.58185 38074 ft 483 kts 17°
2026-04-30 13:54 35.08462 -6.55523 38078 ft 484 kts 17°
2026-04-30 13:55 35.14841 -6.52852 38079 ft 485 kts 17°
2026-04-30 13:55 35.21237 -6.50170 38073 ft 487 kts 17°
2026-04-30 13:56 35.27643 -6.47478 38070 ft 487 kts 17°
2026-04-30 13:56 35.34051 -6.44781 38075 ft 487 kts 17°
2026-04-30 13:57 35.40463 -6.42079 38074 ft 487 kts 17°
2026-04-30 13:57 35.46873 -6.39372 38069 ft 487 kts 17°
2026-04-30 13:58 35.56477 -6.35307 38079 ft 486 kts 17°
2026-04-30 13:59 35.62877 -6.32594 38075 ft 486 kts 17°
2026-04-30 13:59 35.69275 -6.29879 38072 ft 487 kts 17°
2026-04-30 14:00 35.75672 -6.27153 38073 ft 486 kts 17°
2026-04-30 14:00 35.85279 -6.23175 38070 ft 485 kts 13°
2026-04-30 14:01 35.91816 -6.21215 38075 ft 483 kts 10°
2026-04-30 14:01 35.98341 -6.19420 38075 ft 484 kts 10°
2026-04-30 14:02 36.04905 -6.17556 38073 ft 484 kts 11°
2026-04-30 14:02 36.11463 -6.15636 38074 ft 485 kts 11°
2026-04-30 14:03 36.16965 -6.14010 38072 ft 485 kts 11°
2026-04-30 14:03 36.24597 -6.11754 38077 ft 485 kts 11°
2026-04-30 14:04 36.30099 -6.10118 38074 ft 485 kts 11°
2026-04-30 14:04 36.36666 -6.08168 38071 ft 486 kts 11°
2026-04-30 14:05 36.43234 -6.06217 38077 ft 485 kts 11°
2026-04-30 14:05 36.49804 -6.04262 38071 ft 485 kts 11°
2026-04-30 14:06 36.59648 -6.01325 38072 ft 484 kts 12°
2026-04-30 14:07 36.69424 -5.98399 38072 ft 484 kts 11°
2026-04-30 14:08 36.79227 -5.95458 38077 ft 482 kts 11°
2026-04-30 14:08 36.88999 -5.92521 38069 ft 481 kts 12°
2026-04-30 14:09 36.95498 -5.90563 38073 ft 480 kts 12°
2026-04-30 14:10 37.05221 -5.87626 38074 ft 478 kts 12°
2026-04-30 14:10 37.11685 -5.85669 38075 ft 477 kts 12°
2026-04-30 14:11 37.18135 -5.83713 38075 ft 476 kts 12°
2026-04-30 14:11 37.24576 -5.81755 38079 ft 476 kts 12°
2026-04-30 14:12 37.31006 -5.79798 38070 ft 475 kts 12°
2026-04-30 14:12 37.37429 -5.77842 38075 ft 474 kts 12°
2026-04-30 14:13 37.43797 -5.75689 38062 ft 474 kts 21°
2026-04-30 14:13 37.49723 -5.72198 38072 ft 473 kts 26°
2026-04-30 14:14 37.55624 -5.68519 38080 ft 473 kts 26°
2026-04-30 14:14 37.61542 -5.64877 38078 ft 473 kts 26°
2026-04-30 14:15 37.67464 -5.61268 38073 ft 473 kts 26°
2026-04-30 14:15 37.73391 -5.57668 38069 ft 473 kts 26°
2026-04-30 14:16 37.79320 -5.54061 38061 ft 473 kts 26°
2026-04-30 14:16 37.85244 -5.50448 38068 ft 473 kts 26°
2026-04-30 14:17 37.91171 -5.46825 38061 ft 473 kts 26°
2026-04-30 14:17 37.97101 -5.43193 38069 ft 473 kts 26°
2026-04-30 14:18 38.03030 -5.39556 38063 ft 474 kts 26°
2026-04-30 14:18 38.11927 -5.34084 38055 ft 474 kts 26°
2026-04-30 14:19 38.20824 -5.28598 38054 ft 474 kts 26°
2026-04-30 14:20 38.26758 -5.24929 38059 ft 474 kts 25°
2026-04-30 14:20 38.35660 -5.19416 38054 ft 474 kts 25°
2026-04-30 14:21 38.41584 -5.15737 38051 ft 473 kts 25°
2026-04-30 14:22 38.50454 -5.10220 38066 ft 472 kts 25°
2026-04-30 14:22 38.59554 -5.05409 38070 ft 472 kts 20°
2026-04-30 14:23 38.71785 -4.99264 38064 ft 472 kts 21°
2026-04-30 14:24 38.80941 -4.94551 38064 ft 473 kts 21°
2026-04-30 14:25 38.93160 -4.88242 38067 ft 474 kts 20°
2026-04-30 14:26 39.02343 -4.83488 38073 ft 474 kts 20°
2026-04-30 14:27 39.11487 -4.78732 38074 ft 475 kts 20°
2026-04-30 14:27 39.17609 -4.75537 38071 ft 475 kts 20°
2026-04-30 14:28 39.26785 -4.70753 38081 ft 474 kts 20°
2026-04-30 14:28 39.32900 -4.67566 38090 ft 474 kts 20°
2026-04-30 14:29 39.44140 -4.61687 38086 ft 474 kts 20°
2026-04-30 14:31 39.60411 -4.53136 38092 ft 474 kts 20°
2026-04-30 14:31 39.69564 -4.48305 38092 ft 473 kts 20°
2026-04-30 14:32 39.78706 -4.43470 38083 ft 473 kts 20°
2026-04-30 14:33 39.84786 -4.40223 38093 ft 473 kts 20°
2026-04-30 14:33 39.93902 -4.35316 38106 ft 472 kts 20°
2026-04-30 14:34 39.99959 -4.31979 38101 ft 473 kts 22°
2026-04-30 14:34 40.05924 -4.28334 38103 ft 474 kts 23°
2026-04-30 14:35 40.14861 -4.22785 38104 ft 474 kts 22°
2026-04-30 14:36 40.20843 -4.19115 38106 ft 475 kts 22°
2026-04-30 14:36 40.26830 -4.15451 38100 ft 475 kts 22°
2026-04-30 14:37 40.32812 -4.11784 38101 ft 474 kts 22°
2026-04-30 14:37 40.38746 -4.08139 38100 ft 474 kts 22°
2026-04-30 14:38 40.44750 -4.04441 38107 ft 473 kts 22°
2026-04-30 14:38 40.50711 -4.00763 38109 ft 473 kts 22°
2026-04-30 14:39 40.56629 -3.97105 38123 ft 473 kts 22°
2026-04-30 14:39 40.62582 -3.93418 38126 ft 473 kts 22°
2026-04-30 14:40 40.71517 -3.87871 38132 ft 473 kts 22°
2026-04-30 14:40 40.77471 -3.84165 38125 ft 473 kts 22°
2026-04-30 14:41 40.83413 -3.80460 38131 ft 472 kts 22°
2026-04-30 14:41 40.89352 -3.76750 38126 ft 472 kts 22°
2026-04-30 14:42 40.95282 -3.73032 38128 ft 471 kts 22°
2026-04-30 14:42 41.01203 -3.69315 38124 ft 471 kts 21°
2026-04-30 14:43 41.07118 -3.65596 38124 ft 471 kts 21°
2026-04-30 14:43 41.13034 -3.61869 38119 ft 470 kts 21°
2026-04-30 14:44 41.18987 -3.58313 38118 ft 468 kts 18°
2026-04-30 14:44 41.25028 -3.55071 38114 ft 468 kts 17°
2026-04-30 14:45 41.31070 -3.51824 38110 ft 468 kts 18°
2026-04-30 14:45 41.37100 -3.48528 38113 ft 468 kts 18°
2026-04-30 14:46 41.43084 -3.45233 38111 ft 468 kts 18°
2026-04-30 14:46 41.48124 -3.42457 38119 ft 468 kts 18°
2026-04-30 14:47 41.55109 -3.38607 38117 ft 467 kts 18°
2026-04-30 14:47 41.61116 -3.35293 38110 ft 467 kts 18°
2026-04-30 14:48 41.66143 -3.32515 38109 ft 467 kts 18°
2026-04-30 14:48 41.73112 -3.28652 38113 ft 467 kts 18°
2026-04-30 14:49 41.79105 -3.25323 38111 ft 466 kts 18°
2026-04-30 14:49 41.85097 -3.21989 38113 ft 466 kts 18°
2026-04-30 14:50 41.93105 -3.17522 38112 ft 466 kts 18°
2026-04-30 14:51 42.02035 -3.12524 38112 ft 466 kts 18°
2026-04-30 14:52 42.11006 -3.07491 38109 ft 466 kts 18°
2026-04-30 14:52 42.19972 -3.02443 38108 ft 465 kts 18°
2026-04-30 14:53 42.28926 -2.97390 38118 ft 465 kts 18°
2026-04-30 14:54 42.40854 -2.90629 38099 ft 464 kts 18°
2026-04-30 14:55 42.46612 -2.86606 38090 ft 472 kts 32°
2026-04-30 14:55 42.49150 -2.83771 38100 ft 474 kts 38°
2026-04-30 14:56 42.58912 -2.71747 38083 ft 474 kts 38°
2026-04-30 14:57 42.66280 -2.62793 38082 ft 474 kts 38°
2026-04-30 14:58 42.76123 -2.50854 38070 ft 474 kts 38°
2026-04-30 14:58 42.83491 -2.41875 38080 ft 474 kts 38°
2026-04-30 15:00 42.95762 -2.26845 38081 ft 475 kts 39°
2026-04-30 15:01 43.05556 -2.14762 38086 ft 474 kts 39°
2026-04-30 15:01 43.12892 -2.05672 38093 ft 474 kts 39°
2026-04-30 15:02 43.17780 -1.99602 38092 ft 474 kts 40°
2026-04-30 15:03 43.29959 -1.84442 38098 ft 472 kts 38°
2026-04-30 15:04 43.35394 -1.79563 38110 ft 465 kts 24°
2026-04-30 15:04 43.44140 -1.74014 38102 ft 463 kts 21°
2026-04-30 15:06 43.58805 -1.64920 38104 ft 462 kts 22°
2026-04-30 15:07 43.70482 -1.57509 38102 ft 462 kts 22°
2026-04-30 15:08 43.82175 -1.50062 38101 ft 463 kts 22°
2026-04-30 15:09 43.96818 -1.40690 38095 ft 464 kts 22°
2026-04-30 15:10 44.08534 -1.33155 38094 ft 464 kts 22°
2026-04-30 15:11 44.26105 -1.21789 38105 ft 464 kts 23°
2026-04-30 15:13 44.40713 -1.12287 38100 ft 463 kts 23°
2026-04-30 15:14 44.61052 -0.98964 38100 ft 461 kts 23°
2026-04-30 15:17 44.87166 -0.81707 38102 ft 459 kts 23°
2026-04-30 15:19 45.10220 -0.66329 38105 ft 457 kts 24°